Regional Weather Roundup
Issued by NWS

Home | Current Version | Previous Version | Graphics & Text | Print | Product List | Glossary On
Versions: 1 2 3 4 5 6 7 8 9 10 11 12 13 14 15 16 17 18 19 20 21 22 23 24 25 26 27
000
ASUS45 KCYS 170910
RWRWY

WYOMING REGIONAL WEATHER ROUNDUP
NATIONAL WEATHER SERVICE CHEYENNE WY
200 AM MST FRI NOV 17 2017

NOTE:  "FAIR" INDICATES FEW OR NO CLOUDS BELOW 12,000 FEET
WITH NO SIGNIFICANT WEATHER AND/OR OBSTRUCTIONS TO VISIBILITY.

WYZ001-171000-
YELLOWSTONE NATIONAL PARK

CITY           SKY/WX    TMP DP  RH WIND       PRES   REMARKS
LK YELLOWSTONE   N/A     28  25  88 VRB6      29.66S WCI  22
W YELLOWSTONE  NOT AVBL

$$
WYZ002>013-054>058-071-098>099-171000-
NORTHERN WYOMING

CITY           SKY/WX    TMP DP  RH WIND       PRES   REMARKS
JACKSON        LGT SNOW  33  32  96 S13       29.68R FOG     WCI  24
CODY           FAIR      31  30  96 S8        29.59F WCI  23
GREYBULL       FAIR      38  35  89 W7        29.58S WCI  33
WORLAND        CLOUDY    38  37  97 SE3       29.58S
SHERIDAN       LGT SNOW  33  32  96 CALM      29.65F FOG
BUFFALO        SNOW      33  30  88 CALM      29.67S VSB 1/2
GILLETTE       FLURRIES  34  32  92 N8        29.66R WCI  27
HULETT         CLOUDY    37  28  70 N10       29.67F WCI  30
NEWCASTLE      PTSUNNY   37  32  81 NW5       29.60F WCI  34

$$
WYZ014>020-022>026-101>103-171000-
CENTRAL WYOMING

CITY           SKY/WX    TMP DP  RH WIND       PRES   REMARKS
BIG PINEY      LGT SNOW  32  32 100 S5        29.72R FOG     WCI  27
PINEDALE       FLURRIES  32  32 100 CALM      29.72S
DUBOIS         LGT SNOW  32  30  93 NW9       29.62F WCI  24
LANDER         LGT RAIN  40  35  83 S5        29.61S
RIVERTON       CLOUDY    42  32  67 W7        29.61S
CASPER         CLOUDY    48  36  63 SW24G31   29.62S
DOUGLAS        FAIR      48  30  49 CALM      29.60S

$$
WYZ021-027>030-104>119-171000-
SOUTHERN WYOMING

CITY           SKY/WX    TMP DP  RH WIND       PRES   REMARKS
EVANSTON       LGT RAIN  39  38  96 SW23G29   29.74F WCI  28
FORT BRIDGER   CLOUDY    38  38 100 W16G24    29.77F WCI  29
ROCK SPRINGS   LGT RAIN  38  36  92 W22       29.73S WCI  27
DIXON          CLOUDY    49  28  43 SW10      29.77F
RAWLINS        CLOUDY    48  30  49 W15G25    29.69S
SARATOGA       FAIR      48  28  46 SW25G45   29.71S
LARAMIE        FAIR      42  29  59 S9        29.73F
CHEYENNE       FAIR      52  29  41 SW17      29.67F
TORRINGTON     FAIR      43  30  60 E13       29.59F
PINE BLUFFS    FAIR      36  28  75 MISG      29.65F

$$




USA.gov is the U.S. government's official web portal to all federal, state and local government web resources and services.